Tracking 25949 objects as of 8-Aug-2022
HD Live streaming from Space Station
objects crossing your sky now

COSMOS 1275 DEB

Track COSMOS 1275 DEB now!
10-day predictions


NORAD ID: 12714
Int'l Code: 1981-053BJ
Perigee: 955.4 km
Apogee: 1,143.5 km
Inclination: 83.0 °
Period: 106.0 minutes
Semi major axis: 7420 km
RCS: 0.2013 m2 (medium)
Launch date: June 4, 1981
Source: Commonwealth of Independent States (former USSR) (CIS)
Launch site: PLESETSK MISSILE AND SPACE COMPLEX (PKMTR)

Note: This is SATELLITE DEBRIS
aabbcc
Your satellite tracking list
Your tracking list is empty




NASA's NSSDC Master Catalog

Two Line Element Set (TLE):
1 12714U 81053BJ  22220.38043623  .00000026  00000-0  14058-4 0  9999
2 12714  82.9731 268.5948 0126690  62.2154 299.1769 13.58178854 25542
Source of the keplerian elements: AFSPC